Location: Ambrosina
(19.9365°S, 43.9833°W)
Time: 00:56:54
(UTC+00:00)

Cosmos 2266 Rocket - Pass Details

Date: 11 May 2021
Orbit: 933 x 1009 km, 82.9° (Epoch: 20 June)

Event Time Altitude Azimuth Distance (km) Brightness Sun altitude
Rises 22:29:07 0° 347° (NNW) 3,576 7.3 -28.2°
Reaches altitude 10° 22:31:37 10° 342° (NNW) 2,635 6.6 -28.8°
Maximum altitude 22:37:29 57° 265° (W) 1,097 4.4 -30.1°
Enters shadow 22:41:48 19° 191° (SSW) 2,075 5.7 -31.1°
